Location: Gebenbach
(49.5378°N, 11.8735°E)
Time: 04:24:50
(UTC+00:00)

Timation 1 Rocket - Pass Details

Date: 29 October 2020
Orbit: 896 x 911 km, 70.0° (Epoch: 25 November)

Event Time Altitude Azimuth Distance (km) Brightness Sun altitude
Rises 17:33:00 0° 330° (NNW) 3,549 7.8 -16.4°
Reaches altitude 10° 17:35:31 10° 333° (NNW) 2,606 7.1 -16.8°
Maximum altitude 17:41:33 69° 56° (ENE) 973 4.3 -17.8°
Enters shadow 17:46:17 17° 138° (SE) 2,139 5.9 -18.5°
